Jilin-1 GaoFen 03D 01 xing

decayed
NORAD ID: 49004 Int'l Des: 2021-061 Owner: CGSTL Country: CN Constellation: jilin-1
LEOCIRCULARRETROGRADE

关于 Jilin-1 GaoFen 03D 01 xing

正在加载描述...

高度历史

Altitude vs Time

uPlot chart will show altitude changes over time

两行轨道根数

1 49004U 21061B 25332.10493538 .07685132 24630-5 84508-3 0 9995
2 49004 97.3092 53.6491 0009096 278.4373 81.5894 16.37221819245517
Epoch: Nov 28, 2025 • Age: 3064 hours

当前状态

Position data unavailable
发射日期 Jul 3, 2021
运行时间 4.7 years
衰减日期 Nov 28, 2025
类型 earth observation

技术详情

分类 Payload
质量 42.00 kg
干质量 42.00 kg
总质量 42.00 kg
长度 1.50 m
直径 1.00 m
跨度 1.50 m
形状 Box
制造商 CGSTL
平台类型 JL-1
阶段状态 Reentered
所有者/国家 CGSTL/CN

大型星座

Loading constellations...